Location: Brownlee
(50.7397°N, 106.0159°W)
Time: 08:20:32
(UTC+00:00)

Envisat - Pass Details

Date: 04 December 2022
Orbit: 763 x 765 km, 98.2° (Epoch: 04 February)

Event Time Altitude Azimuth Distance (km) Brightness Sun altitude
Rises 10:22:51 0° 23° (NNE) 3,246 6.7 -40.7°
Reaches altitude 10° 10:25:33 10° 36° (NE) 2,315 5.9 -40.3°
Enters shadow 10:26:52 16° 47° (NE) 1,925 5.5 -40.1°
